Regional Weather Roundup
Issued by NWS

Home | Current Version | Previous Version | Graphics & Text | Print | Product List | Glossary On
Versions: 1 2 3 4 5 6 7 8 9 10 11 12 13 14 15 16 17 18 19 20 21 22 23 24 25 26 27 28 29
000
ASUS45 KCYS 190710
RWRWY

WYOMING REGIONAL WEATHER ROUNDUP
NATIONAL WEATHER SERVICE CHEYENNE WY
100 AM MDT THU APR 19 2018

NOTE:  "FAIR" INDICATES FEW OR NO CLOUDS BELOW 12,000 FEET
WITH NO SIGNIFICANT WEATHER AND/OR OBSTRUCTIONS TO VISIBILITY.

WYZ001-190800-
YELLOWSTONE NATIONAL PARK

CITY           SKY/WX    TMP DP  RH WIND       PRES   REMARKS
LK YELLOWSTONE   N/A     20  12  71 CALM      30.15F
W YELLOWSTONE  NOT AVBL

$$
WYZ002>013-054>058-071-098>099-190800-
NORTHERN WYOMING

CITY           SKY/WX    TMP DP  RH WIND       PRES   REMARKS
JACKSON        FAIR      30  21  69 E5        30.10S WCI  25
CODY           FAIR      36  25  64 SW5       30.15F WCI  32
GREYBULL       NOT AVBL
WORLAND        FAIR      37  28  70 CALM      30.13S
SHERIDAN       FAIR      36  24  62 SE7       30.20S WCI  30
BUFFALO        FAIR      39  19  44 S6        30.22S WCI  35
GILLETTE       FAIR      33  25  72 S7        30.23R WCI  27
HULETT         FAIR      36  28  75 E6        30.26R WCI  31
NEWCASTLE      FAIR      37  21  52 S13G18    30.28R WCI  29

$$
WYZ014>020-022>026-101>103-190800-
CENTRAL WYOMING

CITY           SKY/WX    TMP DP  RH WIND       PRES   REMARKS
BIG PINEY      NOT AVBL
PINEDALE       FAIR      30  19  64 W6        30.12S WCI  24
DUBOIS         PTSUNNY   30  14  51 CALM      30.14R
LANDER         FAIR      38  21  50 W5        30.11S WCI  34
RIVERTON       FAIR      35  22  58 E9        30.12S WCI  28
CASPER         FAIR      33  21  61 SE3       30.18S
DOUGLAS        FAIR      30  24  78 SE5       30.24S WCI  25

$$
WYZ021-027>030-104>119-190800-
SOUTHERN WYOMING

CITY           SKY/WX    TMP DP  RH WIND       PRES   REMARKS
EVANSTON       NOT AVBL
KEMMERER       FAIR      36   1  23 NE7G18    30.06F WCI  30
FORT BRIDGER   FAIR      32   4  30 CALM      30.09R
ROCK SPRINGS   NOT AVBL
DIXON          FAIR      33  22  61 CALM      30.13S
RAWLINS        FAIR      35  17  47 NE13      30.13F WCI  26
SARATOGA       FAIR      34  12  40 CALM      30.14S
LARAMIE        FAIR      31  15  52 SE21      30.20F WCI  18
CHEYENNE       FAIR      30  19  63 W3        30.27S
TORRINGTON     FAIR      31  24  75 E7        30.27R WCI  24
PINE BLUFFS    FAIR      21  18  86 MISG      30.29R

$$




USA.gov is the U.S. government's official web portal to all federal, state and local government web resources and services.